Weather Roundup
Issued by NWS

Home | Current Version | Previous Version | Text Only | Print | Product List | Glossary On
Versions: 1 2 3 4 5 6 7 8 9 10 11 12 13 14 15 16 17 18 19 20 21 22 23 24 25 26 27 28 29 30 31 32 33 34 35 36 37 38 39 40 41 42 43 44 45 46 47 48 49 50
277
NZUS93 KARX 222210
HRRWXR

CURRENT HOURLY OBSERVATIONS ACROSS
MUCH OF THE UPPER MISSISSIPPI VALLEY
NATIONAL WEATHER SERVICE LA CROSSE WI
500 PM CDT TUE MAY 22 2018


...SOUTHEAST MINNESOTA...


CITY           SKY/WX    TMP DP  RH WIND       PRES   REMARKS
ROCHESTER      PTSUNNY   73  60  63 E3        30.05F
ROCHESTER/MAYO MOCLDY    71  56  58 CALM      30.05S
WINONA         CLOUDY    64  57  77 CALM      30.04S
AUSTIN         FAIR      75  57  53 CALM      30.02F
ALBERT LEA     FAIR      75  54  46 CALM      30.02S
DODGE CENTER   FAIR      73  57  56 CALM      30.05S
PRESTON        FAIR      69  58  66 E6        30.06F
OWATONNA       FAIR      75  61  60 E8        30.03S
FARIBAULT      FAIR      75  57  53 CALM      30.03S
$$

...ELSEWHERE IN MINNESOTA...


CITY           SKY/WX    TMP DP  RH WIND       PRES   REMARKS
MINNEAPOLIS    PTSUNNY   75  57  53 MISG      30.03S
INTNL FALLS    FAIR      80  41  24 N7        29.97F
DULUTH         FAIR      75  53  46 W9        30.01S
RED WING       FAIR      73  52  46 S7        30.03F
REDWOOD FALLS  MOSUNNY   77  60  55 SE8       29.99F
MANKATO        FAIR      78  56  46 SE3       30.00F
WORTHINGTON      N/A     77  62  59 SE12      29.99F
FAIRMONT       PTSUNNY   79  60  52 S12       29.99
$$

...SOUTHWEST WISCONSIN...


CITY           SKY/WX    TMP DP  RH WIND       PRES   REMARKS
LA CROSSE      CLOUDY    67  57  70 CALM      30.06S
PRAIRIE DU CHI FAIR      73  57  57 CALM      30.04S
BOSCOBEL       CLOUDY    71  59  65 VRB3      30.06R
LONE ROCK      CLOUDY    67  59  75 CALM      30.06S
PLATTEVILLE    CLOUDY    68  61  78 CALM      30.06S
FORT MC COY    CLOUDY    63  57  81 CALM      30.08S
CAMP DOUGLAS   CLOUDY    64  59  82 W3        30.06F
MAUSTON-NEW LI CLOUDY    65  58  79 CALM      30.06S
VIROQUA        CLOUDY    64  59  83 N3        30.07S
WIS DELLS      CLOUDY    65  56  73 CALM      30.07S
$$

...ELSEWHERE IN WISCONSIN...


CITY           SKY/WX    TMP DP  RH WIND       PRES   REMARKS
MILWAUKEE      FAIR      63  56  78 E7        30.05S
MADISON        PTSUNNY   68  58  70 CALM      30.05F
GREEN BAY      FAIR      75  58  55 W7        30.01F
EAU CLAIRE     CLOUDY    70  57  63 E7        30.04F
BLACK RVR FLS  CLOUDY    65  55  70 CALM      30.07S
MEDFORD        PTSUNNY   71  54  56 SW7       30.04S
WAUSAU         FAIR      71  56  58 CALM      30.02S
WIS RAPIDS     PTSUNNY   70  57  63 SW9       30.06S
MARSHFIELD     FAIR      69  58  67 W8        30.05R
RICE LAKE      FAIR      73  54  51 S6        30.06S
$$

...NORTHEAST IOWA...


CITY           SKY/WX    TMP DP  RH WIND       PRES   REMARKS
WATERLOO       FAIR      77  60  55 CALM      30.01S
DUBUQUE        FAIR      72  58  61 VRB3      30.05S
DECORAH        PTSUNNY   70  59  68 CALM      30.05S
MASON CITY     MOSUNNY   80  58  46 S8        30.02S
CHARLES CITY   FAIR      77  57  50 VRB7      30.03S
OELWEIN        FAIR      72  61  68 NE5       30.04
$$

...ELSEWHERE IN IOWA...


CITY           SKY/WX    TMP DP  RH WIND       PRES   REMARKS
DES MOINES     CLOUDY    77  62  59 S9        30.01S
IOWA CITY      PTSUNNY   77  61  57 S5        30.03F
FORT DODGE     PTSUNNY   79  62  56 SE6       30.00
MARSHALLTOWN   MOSUNNY   77  63  61 SE5       30.01S
CEDAR RAPIDS   FAIR      77  59  53 VRB5      30.02S
$$

...NORTHERN ILLINOIS...


CITY           SKY/WX    TMP DP  RH WIND       PRES   REMARKS
CHICAGO-OHARE  CLOUDY    64  54  69 E5        30.05R
CHICAGO-MIDWAY CLOUDY    62  54  74 E8        30.05S
MOLINE         FAIR      76  61  59 CALM      30.02F
ROCKFORD       PTSUNNY   70  59  68 NE7       30.06S
PEORIA         FAIR      78  61  55 VRB7      30.02F
$$

NOTE: "FAIR" INDICATES FEW OR NO CLOUDS BELOW 12,000 FEET WITH NO
SIGNIFICANT WEATHER AND/OR OBSTRUCTIONS TO VISIBILITY. WIND
SPEEDS ARE IN MILES-PER-HOUR.




USA.gov is the U.S. government's official web portal to all federal, state and local government web resources and services.